Regional Weather Roundup
Issued by NWS Newport/Morehead, NC

Current Version | Previous Version | Graphics & Text | Print | Product List | Glossary On
Versions: 1 2 3 4 5 6 7 8 9 10 11 12 13 14 15 16 17 18 19 20 21 22 23 24 25 26 27 28 29 30 31 32 33 34 35 36 37 38 39 40 41 42 43 44 45 46 47 48 49 50
000 ASUS42 KMHX 211210 RWRMHX WEATHER ROUNDUP FOR EASTERN NORTH CAROLINA NATIONAL WEATHER SERVICE NEWPORT/MOREHEAD CITY NC 800 AM EDT TUE OCT 21 2014 NOTE: "FAIR" INDICATES FEW OR NO CLOUDS BELOW 12,000 FEET WITH NO SIGNIFICANT WEATHER AND/OR OBSTRUCTIONS TO VISIBILITY NCZ015>017-031-032-045>047-102-103-211300- NORTH COAST CITY SKY/WX TMP DP RH WIND PRES REMARKS EDENTON PTCLDY 61 59 92 SW5 29.93S ELIZABETH CITY MOCLDY 62 58 86 SW5 29.92S KITTY HAWK CLOUDY 63 62 95 CALM 29.91S MANTEO CLOUDY 64 62 91 SW5 29.93S $$ NCZ045>047-081-094-103-104-211300- CENTRAL COAST CITY SKY/WX TMP DP RH WIND PRES REMARKS FRISCO MOCLDY 64 63 96 N3 29.92F SWANQUARTER N/A 66 N/A N/A W3 29.88F $$ NCZ095-097-098-100-101-211300- SOUTHERN COAST CITY SKY/WX TMP DP RH WIND PRES REMARKS BEAUFORT CLEAR 60 59 96 W3 29.94S CEDAR ISLAND N/A 63 N/A N/A S2 29.97S JACKSONVILLE PTCLDY 57 56 96 CALM 29.94R PINEY ISLAND MOSUNNY 64 61 90 W7 29.94S FOG WILMINGTON CLEAR 55 54 96 CALM 29.95R $$ NCZ011>013-027>030-043-044-078>080-089-090>093-098-211300- COASTAL PLAIN CITY SKY/WX TMP DP RH WIND PRES REMARKS AHOSKIE PTCLDY 54 53 97 CALM 29.93S CLINTON CLEAR 53 53 100 CALM 29.94S FOG ELIZABETHTOWN CLEAR 54 54 100 CALM 29.94S GOLDSBORO CLEAR 53 53 98 CALM 29.92S GREENVILLE PTCLDY 55 55 100 CALM 29.95S HAVELOCK PTCLDY 55 54 96 CALM 29.96R KENANSVILLE CLEAR 51 50 98 CALM 29.95S KINSTON CLEAR 55 54 94 CALM 29.94S NEW BERN MOCLDY 55 52 89 CALM 29.96R RICHLANDS PTCLDY 52 46 82 CALM 29.95R ROCKY MOUNT PTCLDY 52 51 97 CALM 29.93R WASHINGTON PTCLDY 55 54 97 CALM 29.94S WHITEVILLE CLEAR 55 54 95 CALM 29.95R $$ AMZ130-135-150-152-154-156-158-170-250-252-270-ANZ085-086-088-633-658-670-211300- MARINE OBSERVATIONS STATION/POSITION TIME TEMP WIND PRES WAVE SWELL AIR SEA DIR/SP/G HT/PER HT/PER (UTC) (F) (DEG/KT/KT) (MB) (FT/S) (FT/S) CHESAPEAKE LIGHT 1100 64 230/ 14/ 15 1013.1 64 E VA BEACH 1200 68 69 210/ 12/ 14 1012.5 3/ 6 2/ 6 DUCK 1200 65 68 200/ 6/ 8 1012.4 2 E DUCK 1200 N/A 2/11 2/11 10 NE DUCK 1200 71 N/A 3/ 5 2/12 OREGON INLET 1200 65 66 160/ 4/ 6 1013.3 13E OREGON INLT 1200 73 N/A 2/11 2/11 HATTERAS CG 1200 67 71 320/ 4/ 5 1013.7 DIAMOND BUOY 1200 69 300/ 12/ 16 1013.0 4/ 5 2/ 6 17 S OCRACOKE NOT AVBL CAPE LOOKOUT 1100 67 300/ 7/ 9 1013.9 BEAUFORT LAB 1200 63 70 300/ 1/ 2 1013.3 30 SE NEW RIVER 1200 72 76 290/ 12/ 14 1013.5 3/ 5 2/10 5 SE WRIGHTSVLE 1200 64 73 300/ 10/ 10 N/A 225 S CAPE HAT 1137 70 80 150/ 14/ 16 1014.8 4/ 8 3/ 8 41 SE CHARLESTON 1200 73 79 250/ 8/ 10 1013.6 2/ 9 2/ 9 $$

USA.gov is the U.S. government's official web portal to all federal, state and local government web resources and services.